Idaho Falls, ID

6:27 PM MST on February 10, 2016 (GMT -0700)
Fanning

Weather History for KIDA - October, 2011

Change the Weather History Date:

Saturday, October 1, 2011

  Actual Average Record
Temperature  
Mean Temperature 63 °F 51 °F  
Max Temperature 85 °F 67 °F 87 °F (1992)
Min Temperature 41 °F 35 °F 21 °F (1985)
Degree Days  
Heating Degree Days 2 14  
Month to date heating degree days 2 14  
Since 1 July heating degree days 128 322  
Cooling Degree Days 0 0  
Month to date cooling degree days 0 0  
Year to date cooling degree days 266 264  
Growing Degree Days 13 (Base 50)    
Moisture  
Dew Point 39 °F    
Average Humidity 51    
Maximum Humidity 82    
Minimum Humidity 19    
Precipitation  
Precipitation T in 0.03 in 0.48 in (1971)
Month to date precipitation T 0.03  
Year to date precipitation 6.78 7.85  
Sea Level Pressure  
Sea Level Pressure 29.97 in    
Wind  
Wind Speed 7 mph (WSW)    
Max Wind Speed 21 mph    
Max Gust Speed 32 mph    
Visibility 10 miles    
Events Rain    
T = Trace of Precipitation, MM = Missing Value Source: NWS Daily Summary

Daily Weather History Graph

Daily Weather History Graph

Search for Another Location

Airport or City:

Trip Planner

Search our weather history database for the weather conditions in past years. The results will help you decide how hot, cold, wet, or windy it might be!

Date:

Astronomy

Oct. 01, 2011 Rise Set
Actual Time 7:25 AM MDT 7:09 PM MDT
Civil Twilight 6:57 AM MDT 7:38 PM MDT
Nautical Twilight 6:23 AM MDT 8:11 PM MDT
Astronomical Twilight 5:50 AM MDT 8:44 PM MDT
Moon 12:46 PM MDT (10/1) 10:00 PM MDT (10/1)
Length of Visible Light 12h 41m
Length of Day
11h 44m
Waxing Crescent, 25% of the Moon is Illuminated
Oct 1
Waxing Crescent
Oct 3
First Quarter
Oct 11
Full
Oct 19
Last Quarter
Oct 26
New

Hourly Weather History & Observations

Time (MDT) Temp. Windchill Dew Point Humidity Pressure Visibility Wind Dir Wind Speed Gust Speed Precip Events Conditions
12:53 AM 52.0 °F - 44.1 °F 74% 29.94 in 10.0 mi NNW 3.5 mph - N/A   Clear
1:53 AM 52.0 °F - 41.0 °F 66% 29.96 in 10.0 mi NNE 6.9 mph - N/A   Clear
2:53 AM 50.0 °F - 41.0 °F 71% 29.95 in 10.0 mi North 3.5 mph - N/A   Clear
3:53 AM 46.9 °F - 41.0 °F 80% 29.95 in 10.0 mi Calm Calm - N/A   Clear
4:53 AM 46.9 °F - 37.9 °F 71% 29.96 in 10.0 mi WNW 3.5 mph - N/A   Clear
5:53 AM 46.9 °F - 37.9 °F 71% 29.97 in 10.0 mi Calm Calm - N/A   Clear
6:53 AM 46.9 °F - 37.0 °F 68% 30.00 in 10.0 mi Calm Calm - N/A   Clear
7:53 AM 42.1 °F 39.2 °F 37.9 °F 85% 30.04 in 10.0 mi NW 4.6 mph - N/A   Clear
8:53 AM 52.0 °F - 41.0 °F 66% 30.05 in 10.0 mi NNW 6.9 mph - N/A   Clear
9:53 AM 63.0 °F - 41.0 °F 45% 30.03 in 10.0 mi NNE 4.6 mph - N/A   Clear
10:53 AM 69.1 °F - 39.0 °F 33% 30.02 in 10.0 mi Calm Calm - N/A   Clear
11:53 AM 79.0 °F - 39.9 °F 25% 29.99 in 10.0 mi SW 6.9 mph - N/A   Clear
12:53 PM 82.0 °F - 37.0 °F 20% 29.97 in 10.0 mi SW 11.5 mph - N/A   Clear
1:53 PM 82.4 °F - 37.4 °F 20% 30.07 in 10.0 mi SW 8.1 mph 17.3 mph N/A   Clear
2:53 PM 84.9 °F - 37.0 °F 18% 29.92 in 10.0 mi SW 13.8 mph 20.7 mph N/A   Clear
3:53 PM 84.0 °F - 37.0 °F 19% 29.92 in 10.0 mi SW 16.1 mph 20.7 mph N/A   Scattered Clouds
4:53 PM 82.0 °F - 37.9 °F 21% 29.92 in 10.0 mi WSW 13.8 mph 26.5 mph N/A   Scattered Clouds
5:53 PM 80.1 °F - 39.0 °F 23% 29.93 in 10.0 mi SW 8.1 mph 17.3 mph 0.00 in Rain Light Rain
6:53 PM 75.0 °F - 37.9 °F 26% 29.93 in 10.0 mi WSW 10.4 mph - 0.00 in   Scattered Clouds
7:53 PM 72.0 °F - 39.9 °F 31% 29.95 in 10.0 mi South 4.6 mph - N/A   Clear
8:53 PM 70.0 °F - 39.9 °F 33% 29.94 in 10.0 mi South 8.1 mph - N/A   Clear
9:53 PM 69.8 °F - 37.4 °F 31% 30.04 in 10.0 mi SSE 8.1 mph - N/A   Clear
10:53 PM 70.0 °F - 39.0 °F 32% 29.92 in 10.0 mi South 8.1 mph - N/A   Clear
11:53 PM 57.0 °F - 43.0 °F 59% 29.93 in 10.0 mi WNW 4.6 mph - N/A   Clear